15 daagse weersverwachting Nice (FR)

  • Overzicht
  • Per uur
  • 15 dagen
  • Extra
  • Vergelijk
  • Kaarten
  • Dagkaart
  • Meer »
  • Info
  • Statistieken
  • Directe link
    Temp 6h Neerslag Wind  
 07:34     17:00    Daglengte: 9:26 Morgen
01:00
11°
4.7 mm
2
07:00
11°
 
2
13:00
13°
 
3
19:00
12°
26.0 mm
3
 07:35     17:00    Daglengte: 9:25 Vrijdag 22 Nov
01:00
12°
47.3 mm
3
07:00
12°
21.4 mm
2
13:00
14°
 
4
19:00
13°
27.5 mm
4
 07:36     16:59    Daglengte: 9:23 Zaterdag 23 Nov
01:00
13°
72.9 mm
5
07:00
15°
96.0 mm
6
13:00
16°
113.1 mm
8
19:00
15°
207.1 mm
4
Locatie info
Region:
Latitude: 43.7031°N
Longitude: 7.2661°E
18 masl
Temp/Neerslag /Baro Onweer/Dauwpunt
    Temp Baro 1h Neerslag Dauwpunt Wind UV Bewolking  
 07:33     17:01    Daglengte: 9:28 Vandaag
23:00
12°
1012.3 hPa 4.7 mm
48%
8.4°
1
Windvlaag: 0.2 km/h
66%
 07:34     17:00    Daglengte: 9:26 Morgen
00:00
12°
1012.1 hPa
29%
7.9°
2
Windvlaag: 1.2 km/h
73%
01:00
11°
1011.8 hPa
19%
7.2°
2
Windvlaag: 0.8 km/h
74%
02:00
11°
1011.6 hPa
16%
6.6°
2
Windvlaag: -0.3 km/h
75%
03:00
10°
1011.2 hPa
17%
6.1°
2
Windvlaag: -0.9 km/h
82%
04:00
10°
1010.9 hPa
23%
5.9°
2
Windvlaag: -0.9 km/h
84%
05:00
11°
1010.7 hPa
27%
6.0°
2
Windvlaag: -1.1 km/h
83%
06:00
11°
1010.7 hPa
32%
6.1°
2
Windvlaag: -1.2 km/h
74%
07:00
11°
1010.6 hPa
72%
6.0°
2
Windvlaag: -1.1 km/h
68%
08:00
11°
1010.9 hPa
66%
6.0°
2
Windvlaag: -1.1 km/h
67%
09:00
11°
1011.2 hPa
66%
7.0°
2
Windvlaag: -1.4 km/h
75%
10:00
13°
1011.1 hPa
66%
7.5°
3
Windvlaag: -1.1 km/h
77%
11:00
13°
1011.3 hPa
66%
7.0°
3
Windvlaag: -0.7 km/h
51%
12:00
13°
1010.7 hPa
67%
7.6°
3
Windvlaag: -0.4 km/h
53%
13:00
13°
1010.2 hPa
79%
8.1°
3
Windvlaag: -0.6 km/h
74%
14:00
13°
1009.8 hPa 1.8 mm
82%
9.2°
4
Windvlaag: -0.7 km/h
85%
15:00
13°
1009.7 hPa 2.6 mm
82%
9.9°
3
Windvlaag: -0.2 km/h
86%
16:00
12°
1009.6 hPa 3.2 mm
82%
9.9°
4
Windvlaag: 0.3 km/h
90%
17:00
12°
1009.6 hPa 4.8 mm
82%
9.4°
4
Windvlaag: 0.1 km/h
88%
18:00
12°
1009.8 hPa 6.1 mm
82%
9.3°
4
Windvlaag: -0.2 km/h
90%
19:00
12°
1010.0 hPa 7.4 mm
82%
8.9°
3
Windvlaag: -0.3 km/h
90%
20:00
12°
1010.0 hPa 7.8 mm
82%
8.3°
4
Windvlaag: -1 km/h
89%
21:00
12°
1009.9 hPa 8.0 mm
82%
7.9°
3
Windvlaag: -1 km/h
88%
22:00
12°
1010.0 hPa 7.6 mm
82%
7.9°
3
Windvlaag: -1.3 km/h
89%
23:00
12°
1009.7 hPa 8.0 mm
82%
8.5°
2
Windvlaag: -1 km/h
87%
 07:35     17:00    Daglengte: 9:25 Vrijdag 22 Nov
00:00
12°
1009.8 hPa 8.2 mm
82%
8.5°
2
Windvlaag: -0.9 km/h
87%
01:00
12°
1009.5 hPa 7.7 mm
82%
8.2°
3
Windvlaag: -0.7 km/h
86%
02:00
12°
1009.4 hPa 7.3 mm
82%
8.2°
2
Windvlaag: -0.8 km/h
82%
03:00
12°
1009.2 hPa 7.0 mm
82%
8.3°
2
Windvlaag: -1.3 km/h
81%
04:00
12°
1008.9 hPa 7.1 mm
82%
8.7°
2
Windvlaag: -1.6 km/h
72%
05:00
12°
1009.0 hPa
76%
8.7°
2
Windvlaag: -1 km/h
69%
06:00
12°
1009.1 hPa
38%
8.1°
2
Windvlaag: -1 km/h
60%
07:00
12°
1009.4 hPa
33%
8.2°
2
Windvlaag: -1 km/h
70%
08:00
11°
1009.8 hPa
29%
7.9°
2
Windvlaag: -1.3 km/h
70%
09:00
12°
1010.3 hPa
39%
8.8°
2
Windvlaag: -0.8 km/h
50%
10:00
13°
1010.5 hPa
40%
8.9°
2
Windvlaag: -0.5 km/h
50%
11:00
14°
1010.6 hPa
67%
9.4°
3
Windvlaag: -0.3 km/h
60%
12:00
14°
1010.1 hPa
68%
9.4°
3
Windvlaag: -0 km/h
49%
13:00
14°
1009.4 hPa
70%
9.3°
4
Windvlaag: 0.8 km/h
66%
14:00
14°
1009.0 hPa
69%
10.0°
4
Windvlaag: 0.8 km/h
79%
15:00
14°
1008.5 hPa
35%
10.2°
5
Windvlaag: 0.3 km/h
78%
16:00
14°
1008.9 hPa
90%
9.9°
4
Windvlaag: -0.1 km/h
96%
17:00
13°
1008.4 hPa 9.7 mm
100%
9.6°
4
Windvlaag: -0.2 km/h
92%
18:00
13°
1008.1 hPa 8.3 mm
100%
9.4°
4
Windvlaag: -0.5 km/h
100%
19:00
13°
1008.2 hPa 9.6 mm
100%
9.5°
4
Windvlaag: -0.6 km/h
100%
20:00
13°
1007.7 hPa 10.2 mm
100%
9.1°
3
Windvlaag: -1.5 km/h
100%
21:00
13°
1007.3 hPa 11.4 mm
100%
9.2°
4
Windvlaag: -1.4 km/h
100%
22:00
13°
1007.1 hPa 12.1 mm
100%
9.4°
4
Windvlaag: -1 km/h
98%
23:00
13°
1006.9 hPa 13.3 mm
100%
9.8°
5
Windvlaag: -0.3 km/h
99%
 07:36     16:59    Daglengte: 9:23 Zaterdag 23 Nov
00:00
13°
1006.5 hPa 13.1 mm
100%
10.0°
5
Windvlaag: -0.4 km/h
100%
01:00
13°
1006.2 hPa 12.9 mm
100%
10.1°
5
Windvlaag: -0.3 km/h
100%
02:00
13°
1005.6 hPa 12.2 mm
100%
10.4°
5
Windvlaag: -0.6 km/h
100%
03:00
14°
1004.8 hPa 15.9 mm
100%
10.6°
5
Windvlaag: -1.1 km/h
100%
04:00
14°
1004.1 hPa 12.2 mm
100%
10.5°
5
Windvlaag: -0.7 km/h
100%
05:00
14°
1003.5 hPa 17.6 mm
90%
10.9°
5
Windvlaag: -1.1 km/h
100%
06:00
14°
1003.1 hPa 18.4 mm
95%
10.9°
5
Windvlaag: -0.9 km/h
100%
07:00
15°
1002.8 hPa 19.8 mm
90%
10.7°
6
Windvlaag: -0.4 km/h
100%
08:00
15°
1002.7 hPa 21.9 mm
41%
10.5°
5
Windvlaag: -0.3 km/h
100%
09:00
15°
1002.5 hPa 23.1 mm
39%
9.9°
5
Windvlaag: -0.1 km/h
100%
10:00
15°
1002.1 hPa
36%
9.9°
7
Windvlaag: -0.2 km/h
100%
11:00
16°
1002.0 hPa 24.1 mm
34%
11.7°
8
Windvlaag: -0.4 km/h
100%
12:00
16°
1001.6 hPa 25.1 mm
42%
12.7°
9
Windvlaag: -0 km/h
100%
13:00
16°
1001.1 hPa 18.9 mm
96%
13.3°
8
Windvlaag: -0.3 km/h
100%
14:00
16°
1000.1 hPa 26.0 mm
98%
12.9°
8
Windvlaag: 2.1 km/h
100%
15:00
15°
1000.4 hPa 47.0 mm
99%
12.6°
7
Windvlaag: 1.9 km/h
100%
16:00
15°
1000.5 hPa 46.0 mm
55%
12.4°
7
Windvlaag: 2 km/h
100%
17:00
15°
1000.8 hPa 28.3 mm
100%
12.6°
6
Windvlaag: 1.8 km/h
100%
18:00
15°
1001.4 hPa 30.1 mm
99%
12.3°
6
Windvlaag: 1.8 km/h
100%
19:00
15°
1002.0 hPa 29.6 mm
100%
12.1°
4
Windvlaag: 1 km/h
100%
20:00
15°
1003.3 hPa 139.8 mm
100%
11.7°
2
Windvlaag: 6.1 km/h
99% warningclass
21:00
15°
1004.0 hPa 140.9 mm
100%
11.5°
2
Windvlaag: 5.9 km/h
98%
22:00
14°
1004.5 hPa 144.4 mm
100%
11.2°
3
Windvlaag: 9.2 km/h
98%
Temp/Neerslag /Baro Onweer/Dauwpunt
    Temp Baro Neerslag Dauwpunt Wind Bewolking  
 07:34     17:00    Daglengte: 9:26 Morgen
01:00
11°
1011.8 hPa 4.7 mm 7.2°
2
74%
04:00
10°
1010.9 hPa   5.9°
2
84%
07:00
11°
1010.6 hPa   6.0°
2
68%
10:00
13°
1011.1 hPa   7.5°
3
77%
13:00
13°
1010.2 hPa   8.1°
3
74%
16:00
12°
1009.6 hPa 7.6 mm 9.9°
4
90%
19:00
12°
1010.0 hPa 18.3 mm 8.9°
3
90%
22:00
12°
1010.0 hPa 23.4 mm 7.9°
3
89%
 07:35     17:00    Daglengte: 9:25 Vrijdag 22 Nov
01:00
12°
1009.5 hPa 24.0 mm 8.2°
3
86%
04:00
12°
1008.9 hPa 21.4 mm 8.7°
2
72%
07:00
12°
1009.4 hPa   8.2°
2
70%
10:00
13°
1010.5 hPa   8.9°
2
50%
13:00
14°
1009.4 hPa   9.3°
4
66%
16:00
14°
1008.9 hPa   9.9°
4
96%
19:00
13°
1008.2 hPa 27.5 mm 9.5°
4
100%
22:00
13°
1007.1 hPa 33.6 mm 9.4°
4
98%
 07:36     16:59    Daglengte: 9:23 Zaterdag 23 Nov
01:00
13°
1006.2 hPa 39.3 mm 10.1°
5
100%
04:00
14°
1004.1 hPa 40.3 mm 10.5°
5
100%
07:00
15°
1002.8 hPa 55.7 mm 10.7°
6
100%
10:00
15°
1002.1 hPa 44.9 mm 9.9°
7
100%
13:00
16°
1001.1 hPa 68.1 mm 13.3°
8
100%
16:00
15°
1000.5 hPa 119.0 mm 12.4°
7
100%
19:00
15°
1002.0 hPa 88.0 mm 12.1°
4
100%
22:00
14°
1004.5 hPa 425.1 mm 11.2°
3
98%
 07:38     16:58    Daglengte: 9:20 Zondag 24 Nov
01:00
14°
1006.0 hPa 435.9 mm 10.4°
3
94%
04:00
14°
1008.2 hPa 152.0 mm 8.6°
3
38%
07:00
14°
1009.1 hPa 159.4 mm 7.7°
4
14%
10:00
17°
1009.7 hPa 161.1 mm 8.7°
2
10%
13:00
19°
1010.2 hPa 161.1 mm 9.4°
1
6%
16:00
17°
1011.0 hPa 161.1 mm 8.3°
2
28%
19:00
14°
1011.8 hPa 161.1 mm 6.8°
3
49%
22:00
13°
1012.2 hPa 161.1 mm 5.5°
4
70%
 07:39     16:58    Daglengte: 9:19 Maandag 25 Nov
01:00
13°
1012.4 hPa 161.1 mm 4.2°
4
91%
04:00
13°
1012.1 hPa 161.1 mm 4.8°
4
85%
07:00
13°
1011.8 hPa 161.1 mm 5.4°
3
78%
10:00
15°
1011.6 hPa 161.1 mm 8.0°
3
81%
13:00
17°
1011.3 hPa 161.1 mm 10.6°
3
83%
16:00
16°
1010.7 hPa 161.1 mm 10.8°
3
61%
19:00
15°
1010.3 hPa 161.1 mm 10.9°
2
38%
22:00
13°
1009.3 hPa 161.1 mm 8.4°
2
29%
 07:40     16:57    Daglengte: 9:17 Dinsdag 26 Nov
01:00
11°
1008.3 hPa 161.1 mm 6.0°
2
21%
04:00
11°
1007.7 hPa 161.1 mm 4.9°
3
23%
07:00
11°
1007.1 hPa 161.1 mm 3.8°
3
26%
10:00
13°
1007.7 hPa 161.1 mm 5.4°
3
13%
13:00
15°
1008.2 hPa 161.1 mm 6.9°
2
0%
16:00
13°
1008.5 hPa 161.1 mm 6.7°
1
11%
19:00
12°
1009.0 hPa 161.1 mm 6.1°
1
22%
22:00
12°
1009.2 hPa 161.1 mm 5.4°
2
57%
 07:41     16:56    Daglengte: 9:15 Woensdag 27 Nov
01:00
12°
1009.4 hPa 161.1 mm 4.6°
3
91%
04:00
12°
1007.0 hPa 161.1 mm 6.7°
3
91%
07:00
13°
1004.6 hPa 161.1 mm 8.8°
2
92%
10:00
15°
1002.9 hPa 161.1 mm 11.1°
3
46%
13:00
18°
1001.1 hPa 161.1 mm 13.5°
3
1%
16:00
17°
1002.4 hPa 161.2 mm 9.8°
3
1%
19:00
15°
1003.7 hPa 161.5 mm 5.7°
3
1%
22:00
14°
1004.9 hPa   5.6°
3
0%
 07:42     16:56    Daglengte: 9:14 Donderdag 28 Nov
01:00
12°
1006.1 hPa 324.9 mm 5.6°
3
0%
07:00
11°
1008.0 hPa 328.7 mm 2.3°
3
0%
13:00
17°
1009.8 hPa 329.8 mm 6.4°
1
52%
19:00
14°
1011.8 hPa 330.4 mm 6.1°
1
89%
 07:44     16:56    Daglengte: 9:12 Vrijdag 29 Nov
01:00
11°
1013.0 hPa 330.9 mm 4.0°
1
36%
07:00
10°
1013.3 hPa 331.0 mm 3.5°
2
12%
13:00
16°
1013.3 hPa 331.0 mm 10.5°
1
31%
19:00
14°
1013.9 hPa 331.0 mm 10.6°
2
72%
 07:45     16:55    Daglengte: 9:10 Zaterdag 30 Nov
01:00
12°
1014.9 hPa 331.0 mm 8.1°
2
26%
07:00
11°
1014.5 hPa 331.0 mm 6.3°
1
6%
13:00
17°
1014.4 hPa 331.0 mm 12.5°
1
61%
19:00
12°
1017.7 hPa 0.1 mm 8.7°
1
37%
 07:46     16:55    Daglengte: 9:09 Zondag 01 Dec
01:00
11°
1018.1 hPa 0.1 mm 7.6°
2
43%
07:00
11°
1017.3 hPa 0.1 mm 7.5°
1
43%
13:00
15°
1017.1 hPa 0.9 mm 10.4°
0
38%
19:00
11°
1017.1 hPa 1.0 mm 8.6°
2
42%
 07:47     16:54    Daglengte: 9:07 Maandag 02 Dec
01:00
11°
1017.1 hPa 1.1 mm 7.3°
2
42%
07:00
11°
1016.3 hPa 2.3 mm 6.7°
2
42%
13:00
14°
1016.6 hPa 1.3 mm 9.1°
1
43%
19:00
11°
1016.5 hPa 0.5 mm 7.5°
2
49%
 07:48     16:54    Daglengte: 9:06 Dinsdag 03 Dec
01:00
10°
1016.1 hPa 0.8 mm 7.0°
2
51%
07:00
10°
1015.2 hPa 0.8 mm 6.9°
2
46%
13:00
14°
1014.5 hPa 0.6 mm 9.3°
1
43%
19:00
11°
1013.7 hPa 1.3 mm 8.2°
1
47%
 07:49     16:54    Daglengte: 9:05 Woensdag 04 Dec
01:00
11°
1012.9 hPa 2.3 mm 7.6°
1
57%
07:00
10°
1011.2 hPa 2.6 mm 6.8°
2
61%
13:00
13°
1010.8 hPa 2.1 mm 8.4°
1
54%
19:00
10°
1011.9 hPa 0.7 mm 6.7°
2
51%
 07:50     16:54    Daglengte: 9:04 Donderdag 05 Dec
01:00
Voelt als: 7.7°
1012.9 hPa 0.2 mm 4.8°
3
32%
07:00
Voelt als: 7.3°
1012.9 hPa   4.0°
2
30%
13:00
13°
1012.9 hPa   6.8°
1
33%
19:00
10°
Voelt als: 9.6°
1012.9 hPa 0.4 mm 6.2°
1
43%
  CAPE Lifted Index Hail Supercell Tornado SRH 3km CL BTM PRES CL TOP PRES Swiss DWD icon SMHI TS
 07:33     17:01    Daglengte: 9:28 Vandaag
23:00 1 J/kg 3.6 K 0 % 0 % 0 % 0 m²/s² 0 0 9.75 3
 07:34     17:00    Daglengte: 9:26 Morgen
00:00 0 J/kg 4.3 K 0 % 0 % 0 % 0 m²/s² 0 0 11.05 3
01:00 0 J/kg 4.9 K 0 % 0 % 0 % 0 m²/s² 0 0 11.62 3
02:00 0 J/kg 5.2 K 0 % 0 % 0 % 0 m²/s² 0 0 10.24 3
03:00 0 J/kg 4.9 K 0 % 0 % 0 % 0 m²/s² 0 0 6.97 3
04:00 0 J/kg 4.5 K 0 % 0 % 0 % 0 m²/s² 0 0 6.84 3
05:00 0 J/kg 3.6 K 0 % 0 % 0 % 0 m²/s² 0 0 7.59 3
06:00 0 J/kg 2.8 K 0 % 0 % 0 % 0 m²/s² 0 0 7 3
07:00 0 J/kg 1.4 K 0 % 0 % 0 % 0 m²/s² 0 0 4.01 3
08:00 1 J/kg 1.4 K 0 % 0 % 0 % 0 m²/s² 0 0 2.36 1
09:00 2 J/kg 1.7 K 0 % 0 % 0 % 0 m²/s² 0 0 2.18 3
10:00 0 J/kg 1.8 K 0 % 0 % 0 % 0 m²/s² 0 0 2.25 3
11:00 61 J/kg 1.4 K 0 % 0 % 0 % 0 m²/s² 0 0 1.79 3
12:00 102 J/kg 1.2 K 0 % 0 % 0 % 0 m²/s² 0 0 2.07 3
13:00 157 J/kg 0.7 K 0 % 0 % 0 % 0 m²/s² 0 0 1.33 61
14:00 205 J/kg -0.2 K 0 % 0 % 0 % 0 m²/s² 0 0 0.28 61
15:00 237 J/kg -0.5 K 0 % 0 % 0 % 0 m²/s² 0 0 -0.14 61
16:00 0 J/kg 2.6 K 0 % 0 % 0 % 0 m²/s² 0 0 2.84 61
17:00 0 J/kg 2.5 K 0 % 0 % 0 % 0 m²/s² 0 0 2.62 61
18:00 0 J/kg 2.8 K 0 % 0 % 0 % 0 m²/s² 0 0 3.04 61
19:00 0 J/kg 1.5 K 0 % 0 % 0 % 0 m²/s² 0 0 1.74 63
20:00 1 J/kg 2.4 K 0 % 0 % 0 % 0 m²/s² 0 0 2.61 63
21:00 0 J/kg 2.3 K 0 % 0 % 0 % 0 m²/s² 0 0 2.75 63
22:00 0 J/kg 1.6 K 0 % 0 % 0 % 0 m²/s² 0 0 1.81 63
23:00 0 J/kg 2.4 K 0 % 0 % 0 % 0 m²/s² 0 0 4.05 61
 07:35     17:00    Daglengte: 9:25 Vrijdag 22 Nov
00:00 3 J/kg 1.4 K 0 % 0 % 0 % 0 m²/s² 0 0 3.53 61
01:00 3 J/kg 1.7 K 0 % 0 % 0 % 0 m²/s² 0 0 4.55 80
02:00 1 J/kg 2.0 K 0 % 0 % 0 % 0 m²/s² 0 0 5.09 80
03:00 1 J/kg 1.8 K 0 % 0 % 0 % 0 m²/s² 0 0 4.98 80
04:00 0 J/kg 1.3 K 0 % 0 % 0 % 0 m²/s² 0 0 3.37 80
05:00 3 J/kg 1.4 K 0 % 0 % 0 % 0 m²/s² 0 0 4.43 3
06:00 31 J/kg 1.7 K 0 % 0 % 0 % 0 m²/s² 0 0 5.81 3
07:00 45 J/kg 1.9 K 0 % 0 % 0 % 0 m²/s² 0 0 6.01 3
08:00 34 J/kg 2.6 K 0 % 0 % 0 % 0 m²/s² 0 0 6.71 3
09:00 27 J/kg 2.8 K 0 % 0 % 0 % 0 m²/s² 0 0 6.82 3
10:00 36 J/kg 2.1 K 0 % 0 % 0 % 0 m²/s² 0 0 6.12 3
11:00 125 J/kg 2.7 K 0 % 0 % 0 % 0 m²/s² 0 0 6.42 3
12:00 184 J/kg 2.2 K 0 % 0 % 0 % 0 m²/s² 0 0 6.43 3
13:00 272 J/kg 1.6 K 0 % 0 % 0 % 0 m²/s² 0 0 5.44 3
14:00 223 J/kg 2.3 K 0 % 0 % 0 % 0 m²/s² 0 0 6.35 3
15:00 187 J/kg 2.5 K 0 % 0 % 0 % 0 m²/s² 0 0 5.23 3
16:00 177 J/kg 2.8 K 0 % 0 % 0 % 0 m²/s² 0 0 4.3 3
17:00 158 J/kg 3.3 K 0 % 0 % 0 % 0 m²/s² 0 0 3.93 61
18:00 202 J/kg 2.8 K 0 % 0 % 0 % 0 m²/s² 0 0 3.04 61
19:00 164 J/kg 2.5 K 0 % 0 % 0 % 0 m²/s² 0 0 2.65 63
20:00 171 J/kg 1.9 K 0 % 0 % 0 % 0 m²/s² 0 0 1.99 61
21:00 190 J/kg 1.0 K 0 % 0 % 0 % 0 m²/s² 0 0 1.09 61
22:00 36 J/kg 0.9 K 0 % 0 % 0 % 0 m²/s² 0 0 0.99 61
23:00 252 J/kg 0.8 K 0 % 0 % 0 % 0 m²/s² 0 0 1.16 61
 07:36     16:59    Daglengte: 9:23 Zaterdag 23 Nov
00:00 387 J/kg -0.3 K 0 % 0 % 0 % 0 m²/s² 0 0 -0.06 61
01:00 406 J/kg -1.1 K 0 % 0 % 0 % 0 m²/s² 0 0 -1.01 61
02:00 296 J/kg -0.5 K 0 % 0 % 0 % 0 m²/s² 0 0 -0.41 61
03:00 253 J/kg 0.0 K 0 % 0 % 0 % 0 m²/s² 0 0 0.09 80
04:00 212 J/kg 0.9 K 0 % 0 % 0 % 0 m²/s² 0 0 0.93 80
05:00 126 J/kg 1.5 K 0 % 0 % 0 % 0 m²/s² 0 0 1.53 3
06:00 133 J/kg 1.9 K 0 % 0 % 0 % 0 m²/s² 0 0 1.99 3
07:00 56 J/kg 2.1 K 0 % 0 % 0 % 0 m²/s² 0 0 2.13 3
08:00 69 J/kg 0.7 K 0 % 0 % 0 % 0 m²/s² 0 0 0.7 3
09:00 349 J/kg -0.6 K 0 % 0 % 0 % 0 m²/s² 0 0 -0.57 3
10:00 137 J/kg 0.0 K 0 % 0 % 0 % 0 m²/s² 0 0 0 3
11:00 495 J/kg -2.2 K 0 % 0 % 0 % 0 m²/s² 0 0 -1.12 3
12:00 258 J/kg -1.3 K 0 % 0 % 0 % 0 m²/s² 0 0 -1.27 3
13:00 249 J/kg -0.9 K 0 % 0 % 0 % 0 m²/s² 0 0 -0.78 61
14:00 175 J/kg -0.4 K 0 % 0 % 0 % 0 m²/s² 0 0 -0.37 61
15:00 131 J/kg 0.0 K 0 % 0 % 0 % 0 m²/s² 0 0 0.3 61
16:00 184 J/kg -0.6 K 0 % 0 % 0 % 0 m²/s² 0 0 0.27 3
17:00 330 J/kg -1.0 K 0 % 0 % 0 % 0 m²/s² 0 0 -0.97 61
18:00 418 J/kg -1.6 K 0 % 0 % 0 % 0 m²/s² 0 0 -1.45 80
19:00 484 J/kg -1.5 K 0 % 0 % 0 % 0 m²/s² 0 0 -1.29 80
20:00 796 J/kg -2.6 K 0 % 0 % 0 % 0 m²/s² 0 0 -2.3
21:00 672 J/kg -1.8 K 0 % 0 % 0 % 0 m²/s² 0 0 -1.56
22:00 259 J/kg -0.2 K 0 % 0 % 0 % 0 m²/s² 0 0 0.04
Temp Baro Wind Neerslag
  EWN Forecast EWN WRFDA DWD ICON FMI HIRLAM MET Norway GFS
 07:34     17:00    Daglengte: 9:26 Morgen
01:00 11.2° 1011.8 hPa 1.8 m/s 4.7 mm 10.9° 1010.0 hPa 1.9 m/s 12.5 mm 10.7° 1012.0 hPa 1.6 m/s 4.3 mm 12.5° 1011.9 hPa 4.0 m/s 0.0 mm 11.1° 1012.2 hPa 0.7 m/s 0.0 mm 11.4° 1012.3 hPa 1.4 m/s
04:00 10.4° 1010.9 hPa 1.9 m/s 0.0 mm 11.0° 1008.7 hPa 2.7 m/s 12.5 mm 10.6° 1011.1 hPa 1.8 m/s 0.0 mm 11.9° 1010.9 hPa 1.9 m/s 0.0 mm 9.8° 1011.2 hPa 1.4 m/s 0.0 mm 10.9° 1010.9 hPa 1.7 m/s
07:00 10.6° 1010.6 hPa 1.9 m/s 0.0 mm 11.0° 1008.4 hPa 3.0 m/s 12.8 mm 10.4° 1010.9 hPa 1.8 m/s 0.0 mm 12.7° 1010.8 hPa 1.3 m/s 0.0 mm 10.1° 1010.8 hPa 1.7 m/s 0.0 mm 11.1° 1011.0 hPa 2.7 m/s
10:00 12.5° 1011.1 hPa 2.7 m/s 0.0 mm 12.6° 1008.9 hPa 3.0 m/s 17.2 mm 12.5° 1011.3 hPa 2.7 m/s 0.1 mm 13.6° 1010.7 hPa 4.6 m/s 0.0 mm 12.5° 1011.5 hPa 1.9 m/s 0.0 mm 12.5° 1011.5 hPa 2.0 m/s
13:00 13.5° 1010.2 hPa 3.5 m/s 0.0 mm 14.3° 1007.2 hPa 7.3 m/s 17.9 mm 12.9° 1010.8 hPa 2.7 m/s 0.2 mm 14.2° 1009.4 hPa 6.1 m/s 0.0 mm 13.5° 1010.4 hPa 2.5 m/s 0.0 mm 12.1° 1010.6 hPa 2.9 m/s
16:00 12.4° 1009.6 hPa 3.6 m/s 7.6 mm 11.2° 1007.3 hPa 5.1 m/s 33.4 mm 12.2° 1009.6 hPa 2.3 m/s 4.2 mm 14.0° 1007.9 hPa 7.2 m/s 0.0 mm 12.3° 1010.2 hPa 1.9 m/s 1.2 mm 11.9° 1009.9 hPa 2.9 m/s
19:00 12.2° 1010.0 hPa 3.4 m/s 18.3 mm 10.9° 1007.1 hPa 5.7 m/s 91.4 mm 11.5° 1010.0 hPa 1.8 m/s 6.8 mm 14.4° 1008.1 hPa 7.1 m/s 0.0 mm 12.3° 1010.7 hPa 1.4 m/s 6.5 mm 11.2° 1010.0 hPa 2.6 m/s
22:00 11.8° 1010.0 hPa 2.9 m/s 23.4 mm 11.8° 1007.5 hPa 3.0 m/s 123.5 mm 11.2° 1009.8 hPa 2.5 m/s 8.0 mm 14.6° 1007.8 hPa 5.0 m/s 0.0 mm 11.4° 1010.7 hPa 2.3 m/s 8.8 mm 11.0° 1010.5 hPa 4.6 m/s
 07:35     17:00    Daglengte: 9:25 Vrijdag 22 Nov
01:00 11.7° 1009.5 hPa 2.5 m/s 24.0 mm 11.4° 1007.3 hPa 2.5 m/s 136.4 mm 11.4° 1009.1 hPa 2.2 m/s 4.1 mm 13.2° 1007.7 hPa 1.3 m/s 0.0 mm 11.6° 1010.3 hPa 2.6 m/s 10.7 mm 11.0° 1010.6 hPa 3.9 m/s
04:00 11.9° 1008.9 hPa 2.0 m/s 21.4 mm 12.1° 1006.6 hPa 2.5 m/s 136.8 mm 11.4° 1008.6 hPa 2.0 m/s 1.0 mm 12.4° 1008.2 hPa 1.7 m/s 0.0 mm 11.6° 1009.4 hPa 1.4 m/s 3.1 mm 11.2° 1010.0 hPa 2.3 m/s
07:00 11.6° 1009.4 hPa 2.0 m/s 0.0 mm 10.9° 1006.9 hPa 1.3 m/s 136.9 mm 11.3° 1009.0 hPa 2.0 m/s 0.1 mm 12.4° 1008.5 hPa 2.0 m/s 0.0 mm 11.4° 1010.0 hPa 0.8 m/s 0.0 mm 11.2° 1010.6 hPa 1.9 m/s
10:00 13.0° 1010.5 hPa 1.8 m/s 0.0 mm 13.2° 1008.4 hPa 1.6 m/s 136.9 mm 12.8° 1009.9 hPa 1.5 m/s 0.0 mm 13.8° 1009.0 hPa 2.9 m/s 0.0 mm 12.8° 1011.5 hPa 1.5 m/s 0.0 mm 12.6° 1011.7 hPa 2.1 m/s
13:00 14.0° 1009.4 hPa 4.0 m/s 0.0 mm 14.4° 1007.9 hPa 4.2 m/s 138.4 mm 14.0° 1008.9 hPa 3.6 m/s 0.1 mm 14.5° 1007.4 hPa 6.2 m/s 0.0 mm 13.8° 1010.2 hPa 3.2 m/s 0.7 mm 13.9° 1010.4 hPa 2.8 m/s
16:00 13.6° 1008.9 hPa 4.2 m/s 0.0 mm 14.8° 1006.5 hPa 4.1 m/s 139.1 mm 14.0° 1007.9 hPa 5.2 m/s 0.0 mm 13.5° 1009.2 hPa 3.1 m/s 0.6 mm 13.4° 1008.8 hPa 3.6 m/s
19:00 12.8° 1008.2 hPa 3.5 m/s 27.5 mm 13.8° 1005.2 hPa 6.4 m/s 141.1 mm 12.6° 1007.5 hPa 3.8 m/s 5.1 mm 12.8° 1008.4 hPa 0.7 m/s 8.5 mm 12.6° 1008.1 hPa 4.8 m/s
22:00 12.8° 1007.1 hPa 4.0 m/s 33.6 mm 13.9° 1003.8 hPa 8.1 m/s 177.2 mm 12.8° 1005.8 hPa 3.8 m/s 3.9 mm 12.6° 1007.4 hPa 1.4 m/s 17.6 mm 12.0° 1007.5 hPa 6.0 m/s
 07:36     16:59    Daglengte: 9:23 Zaterdag 23 Nov
01:00 13.4° 1006.2 hPa 4.8 m/s 39.3 mm 15.4° 1001.9 hPa 8.1 m/s 196.2 mm 13.7° 1004.4 hPa 4.6 m/s 2.8 mm 13.2° 1006.8 hPa 3.0 m/s 29.5 mm 11.7° 1005.6 hPa 2.9 m/s
04:00 14.1° 1004.1 hPa 4.8 m/s 40.3 mm 14.3° 1000.1 hPa 6.7 m/s 223.3 mm 13.8° 1002.6 hPa 4.6 m/s 3.1 mm 14.0° 1004.6 hPa 3.5 m/s 7.9 mm 13.1° 1002.8 hPa 6.1 m/s
07:00 14.7° 1002.8 hPa 5.8 m/s 55.7 mm 13.8° 997.2 hPa 10.2 m/s 266.6 mm 15.3° 1001.7 hPa 5.6 m/s 0.1 mm 14.6° 1003.7 hPa 3.2 m/s 4.5 mm 13.4° 1001.2 hPa 7.1 m/s
10:00 15.4° 1002.1 hPa 6.7 m/s 44.9 mm 14.2° 996.6 hPa 10.8 m/s 334.8 mm 16.3° 1001.1 hPa 6.7 m/s 0.0 mm 15.5° 1002.7 hPa 3.4 m/s 1.7 mm 13.2° 1000.7 hPa 6.9 m/s
13:00 15.9° 1001.1 hPa 8.4 m/s 68.1 mm 14.6° 996.9 hPa 10.3 m/s 365.8 mm 16.3° 999.9 hPa 9.2 m/s 0.1 mm 16.1° 1001.6 hPa 5.8 m/s 2.5 mm 13.2° 999.9 hPa 6.8 m/s
16:00 15.1° 1000.5 hPa 7.1 m/s 119.0 mm 14.4° 994.8 hPa 9.7 m/s 393.1 mm 16.3° 999.5 hPa 10.2 m/s 0.3 mm 14.9° 1002.4 hPa 4.4 m/s 7.7 mm 12.7° 999.3 hPa 8.4 m/s
19:00 14.8° 1002.0 hPa 4.0 m/s 88.0 mm 14.6° 996.7 hPa 4.7 m/s 415.1 mm 16.0° 1001.0 hPa 9.6 m/s 2.3 mm 14.6° 1003.8 hPa 1.8 m/s 10.2 mm 12.0° 1000.7 hPa 5.9 m/s
22:00 14.3° 1004.5 hPa 3.0 m/s 425.1 mm 13.8° 999.1 hPa 6.6 m/s 425.1 mm 14.4° 1005.5 hPa 2.4 m/s 12.1° 1002.6 hPa 4.1 m/s
 07:38     16:58    Daglengte: 9:20 Zondag 24 Nov
01:00 14.1° 1006.0 hPa 3.1 m/s 435.9 mm 13.5° 999.7 hPa 4.4 m/s 435.9 mm 14.2° 1007.1 hPa 2.9 m/s 12.4° 1003.1 hPa 4.4 m/s
04:00 14.0° 1008.2 hPa 3.3 m/s 152.0 mm 14.1° 1008.6 hPa 3.2 m/s 12.3° 1003.8 hPa 4.3 m/s 152.0 mm
07:00 14.0° 1009.1 hPa 3.7 m/s 159.4 mm 14.1° 1009.4 hPa 3.4 m/s 13.2° 1006.0 hPa 6.4 m/s 159.4 mm
10:00 16.6° 1009.7 hPa 2.4 m/s 161.1 mm 16.8° 1009.8 hPa 2.1 m/s 13.8° 1008.4 hPa 5.1 m/s 161.1 mm
13:00 19.3° 1010.2 hPa 1.2 m/s 161.1 mm 19.5° 1010.3 hPa 0.8 m/s 16.6° 1009.0 hPa 5.7 m/s 161.1 mm
16:00 16.7° 1011.0 hPa 1.9 m/s 161.1 mm 16.8° 1011.1 hPa 1.7 m/s 16.7° 1009.4 hPa 4.4 m/s 161.1 mm
19:00 14.0° 1011.8 hPa 2.8 m/s 161.1 mm 14.0° 1011.9 hPa 2.6 m/s 14.2° 1011.2 hPa 4.5 m/s 161.1 mm
22:00 13.4° 1012.2 hPa 3.5 m/s 161.1 mm 13.3° 1012.1 hPa 3.5 m/s 13.9° 1012.3 hPa 4.2 m/s 161.1 mm
 07:39     16:58    Daglengte: 9:19 Maandag 25 Nov
01:00 12.8° 1012.4 hPa 4.3 m/s 161.1 mm 12.7° 1012.4 hPa 4.3 m/s 13.7° 1012.5 hPa 4.2 m/s 161.1 mm
04:00 13.0° 1012.1 hPa 3.7 m/s 161.1 mm 12.9° 1012.0 hPa 3.7 m/s 13.6° 1012.1 hPa 3.8 m/s 161.1 mm
07:00 13.2° 1011.8 hPa 3.1 m/s 161.1 mm 13.2° 1011.7 hPa 3.1 m/s 13.3° 1012.4 hPa 3.1 m/s 161.1 mm
10:00 15.2° 1011.6 hPa 3.0 m/s 161.1 mm 15.2° 1011.4 hPa 3.1 m/s 15.4° 1013.5 hPa 1.8 m/s 161.1 mm
13:00 17.2° 1011.3 hPa 3.0 m/s 161.1 mm 17.2° 1011.1 hPa 3.1 m/s 17.7° 1013.2 hPa 1.7 m/s 161.1 mm
16:00 16.0° 1010.7 hPa 2.6 m/s 161.1 mm 15.9° 1010.5 hPa 2.7 m/s 16.4° 1012.9 hPa 1.7 m/s 161.1 mm
19:00 14.7° 1010.3 hPa 2.1 m/s 161.1 mm 14.7° 1010.0 hPa 2.2 m/s 14.8° 1013.3 hPa 0.8 m/s 161.1 mm
22:00 13.0° 1009.3 hPa 2.2 m/s 161.1 mm 12.9° 1008.9 hPa 2.2 m/s 14.0° 1014.1 hPa 2.6 m/s 161.1 mm
 07:40     16:57    Daglengte: 9:17 Dinsdag 26 Nov
01:00 11.3° 1008.3 hPa 2.2 m/s 161.1 mm 11.1° 1007.8 hPa 2.1 m/s 13.7° 1014.0 hPa 2.7 m/s 161.1 mm
04:00 11.0° 1007.7 hPa 2.8 m/s 161.1 mm 10.8° 1007.1 hPa 2.8 m/s 13.3° 1013.4 hPa 2.9 m/s 161.1 mm
07:00 10.7° 1007.1 hPa 3.3 m/s 161.1 mm 10.5° 1006.5 hPa 3.4 m/s 13.0° 1013.6 hPa 2.7 m/s 161.1 mm
10:00 12.9° 1007.7 hPa 2.5 m/s 161.1 mm 12.7° 1007.1 hPa 2.6 m/s 15.0° 1014.5 hPa 1.8 m/s 161.1 mm
13:00 15.0° 1008.2 hPa 1.8 m/s 161.1 mm 14.9° 1007.7 hPa 1.8 m/s 16.5° 1014.0 hPa 1.3 m/s 161.1 mm
16:00 13.3° 1008.5 hPa 1.5 m/s 161.1 mm 13.2° 1008.0 hPa 1.6 m/s 15.2° 1014.0 hPa 0.5 m/s 161.1 mm
19:00 11.6° 1009.0 hPa 1.3 m/s 161.1 mm 11.4° 1008.4 hPa 1.3 m/s 13.9° 1015.1 hPa 1.2 m/s 161.1 mm
22:00 11.6° 1009.2 hPa 2.2 m/s 161.1 mm 11.5° 1008.6 hPa 2.2 m/s 13.3° 1016.2 hPa 1.8 m/s 161.1 mm
 07:41     16:56    Daglengte: 9:15 Woensdag 27 Nov
01:00 11.7° 1009.4 hPa 3.1 m/s 161.1 mm 11.6° 1008.8 hPa 3.2 m/s 12.7° 1016.0 hPa 1.9 m/s 161.1 mm
04:00 12.2° 1007.0 hPa 2.6 m/s 161.1 mm 12.1° 1006.2 hPa 2.7 m/s 12.4° 1015.8 hPa 1.9 m/s 161.1 mm
07:00 12.6° 1004.6 hPa 2.2 m/s 161.1 mm 12.7° 1003.6 hPa 2.2 m/s 11.9° 1015.9 hPa 2.2 m/s 161.1 mm
10:00 15.4° 1002.9 hPa 2.7 m/s 161.1 mm 15.5° 1001.7 hPa 2.8 m/s 13.6° 1016.7 hPa 1.6 m/s 161.1 mm
13:00 18.2° 1001.1 hPa 3.1 m/s 161.1 mm 18.4° 999.8 hPa 3.3 m/s 15.6° 1015.4 hPa 1.0 m/s 161.1 mm
16:00 16.7° 1002.4 hPa 3.1 m/s 161.2 mm 16.8° 1001.2 hPa 3.3 m/s 15.0° 1014.5 hPa 0.4 m/s 161.2 mm
19:00 15.1° 1003.7 hPa 3.2 m/s 161.5 mm 15.2° 1002.7 hPa 3.3 m/s 14.1° 1014.5 hPa 1.8 m/s 161.5 mm
22:00 13.7° 1004.9 hPa 2.9 m/s 161.9 mm 13.7° 1004.0 hPa 3.1 m/s 14.0° 1014.9 hPa 1.1 m/s 161.9 mm
 07:42     16:56    Daglengte: 9:14 Donderdag 28 Nov
01:00 12.4° 1006.1 hPa 2.7 m/s 163.0 mm 12.2° 1005.3 hPa 2.9 m/s 14.0° 1014.6 hPa 0.3 m/s 163.0 mm
07:00 10.6° 1008.0 hPa 3.4 m/s 164.6 mm 10.2° 1007.5 hPa 3.6 m/s 14.6° 1013.9 hPa 0.7 m/s 164.6 mm
13:00 17.5° 1009.8 hPa 1.3 m/s 165.0 mm 17.6° 1009.4 hPa 1.3 m/s 16.4° 1014.6 hPa 1.7 m/s 165.0 mm
19:00 13.6° 1011.8 hPa 1.2 m/s 165.2 mm 13.4° 1011.5 hPa 1.2 m/s 15.3° 1014.6 hPa 1.5 m/s 165.2 mm
 07:44     16:56    Daglengte: 9:12 Vrijdag 29 Nov
01:00 11.1° 1013.0 hPa 1.2 m/s 165.5 mm 10.7° 1012.9 hPa 1.1 m/s 15.1° 1014.4 hPa 2.0 m/s 165.5 mm
07:00 10.0° 1013.3 hPa 1.7 m/s 165.5 mm 9.7° 1013.3 hPa 1.6 m/s 13.8° 1013.7 hPa 2.3 m/s 165.5 mm
13:00 15.6° 1013.3 hPa 0.9 m/s 165.5 mm 15.2° 1013.2 hPa 0.6 m/s 19.5° 1014.1 hPa 4.3 m/s 165.5 mm
19:00 13.6° 1013.9 hPa 2.4 m/s 165.5 mm 13.5° 1013.8 hPa 2.2 m/s 14.9° 1014.5 hPa 4.4 m/s 165.5 mm
 07:45     16:55    Daglengte: 9:10 Zaterdag 30 Nov
01:00 12.0° 1014.9 hPa 1.7 m/s 165.5 mm 11.9° 1014.8 hPa 1.6 m/s 13.0° 1016.3 hPa 3.1 m/s 165.5 mm
07:00 11.0° 1014.5 hPa 1.3 m/s 165.5 mm 10.9° 1014.3 hPa 1.2 m/s 12.6° 1016.6 hPa 2.3 m/s 165.5 mm
13:00 17.0° 1014.4 hPa 0.8 m/s 165.5 mm 17.1° 1014.2 hPa 0.8 m/s 16.0° 1016.7 hPa 1.3 m/s 165.5 mm
19:00 11.6° 1017.7 hPa 1.5 m/s 0.1 mm
 07:46     16:55    Daglengte: 9:09 Zondag 01 Dec
01:00 11.1° 1018.1 hPa 1.5 m/s 0.1 mm
07:00 10.8° 1017.3 hPa 1.2 m/s 0.1 mm
13:00 14.6° 1017.1 hPa 0.4 m/s 0.9 mm
19:00 11.3° 1017.1 hPa 1.5 m/s 1.0 mm
 07:47     16:54    Daglengte: 9:07 Maandag 02 Dec
01:00 10.9° 1017.1 hPa 2.0 m/s 1.1 mm
07:00 10.5° 1016.3 hPa 2.2 m/s 2.3 mm
13:00 13.8° 1016.6 hPa 1.3 m/s 1.3 mm
19:00 11.0° 1016.5 hPa 1.9 m/s 0.5 mm
 07:48     16:54    Daglengte: 9:06 Dinsdag 03 Dec
01:00 10.5° 1016.1 hPa 2.0 m/s 0.8 mm
07:00 10.3° 1015.2 hPa 1.9 m/s 0.8 mm
13:00 13.8° 1014.5 hPa 0.5 m/s 0.6 mm
19:00 11.1° 1013.7 hPa 0.8 m/s 1.3 mm
 07:49     16:54    Daglengte: 9:05 Woensdag 04 Dec
01:00 10.7° 1012.9 hPa 1.3 m/s 2.3 mm
07:00 10.3° 1011.2 hPa 1.7 m/s 2.6 mm
13:00 13.1° 1010.8 hPa 1.5 m/s 2.1 mm
19:00 10.3° 1011.9 hPa 2.2 m/s 0.7 mm
 07:50     16:54    Daglengte: 9:04 Donderdag 05 Dec
01:00 9.1° 1012.9 hPa 2.6 m/s 0.2 mm
07:00 8.5° 1012.9 hPa 2.2 m/s 0.0 mm
13:00 12.7° 1012.9 hPa 0.6 m/s 0.0 mm
19:00 9.9° 1012.9 hPa 1.4 m/s 0.4 mm
FMI Hirlam - 7.5 km EWN WRFDA - 12 km DWD ICON - 7 km GFS - 25 km Basiskaart






























































Updatetijd (Europe/Amsterdam) Resolutie Lengte Stap
FMI Hirlam 18:00, 00:00, 06:00, 12:00 7.5 km 49h 1h
EWN WRFDA 20:15, 02:15, 08:15, 14:15 12 km 73h 1h
DWD ICON 16:45, 22:45, 04:45, 10:45 7 km 75h 1h
GFS 19:30, 01:30, 07:30, 13:30 25 km 237h 3h
30+ mm
25-30 mm
20-25 mm
15-20 mm
10-15 mm
6-10 mm
4-6 mm
2-4 mm
1-2 mm
0.5-1 mm
0.2-0.5 mm
0.1-0.2 mm
30+ mm
25-30 mm
20-25 mm
15-20 mm
10-15 mm
6-10 mm
4-6 mm
2-4 mm
1-2 mm
0.5-1 mm
0.2-0.5 mm
0.1-0.2 mm
Sneeuwval
Natte sneeuw
Hagel
Vorst
30+ mm
25-30 mm
20-25 mm
15-20 mm
10-15 mm
6-10 mm
4-6 mm
2-4 mm
1-2 mm
0.5-1 mm
0.2-0.5 mm
0.1-0.2 mm
Sneeuwval
Natte sneeuw
Hagel
Vorst
Onweer
50 mm
40 mm
30 mm
26 mm
22 mm
18 mm
14 mm
10 mm
9 mm
8 mm
7 mm
6 mm
5 mm
4.5 mm
4 mm
3.5 mm
3 mm
2.5 mm
2 mm
1.5 mm
1 mm
0.8 mm
0.6 mm
0.4 mm
0.2 mm
0.05 mm
35°
30°
25°
20°
15°
10°
-5°
-10°
-15°
-20°
-25°
-30°
-35°
120> km/h
105 km/h
90 km/h
75 km/h
60 km/h
50 km/h
40 km/h
30 km/h
20 km/h
10 km/h
0 km/h
2600 J/kg
2400 J/kg
2200 J/kg
2000 J/kg
1800 J/kg
1600 J/kg
1400 J/kg
1200 J/kg
1000 J/kg
800 J/kg
600 J/kg
400 J/kg
200 J/kg
70 dBZ
65 dBZ
60 dBZ
55 dBZ
50 dBZ
45 dBZ
40 dBZ
35 dBZ
30 dBZ
25 dBZ
20 dBZ
15 dBZ
10 dBZ
5 dBZ
-1 K
-2 K
-3 K
-4 K
-5 K
-6 K
-7 K
-8 K
-9 K
950 m²/s²
900 m²/s²
850 m²/s²
800 m²/s²
750 m²/s²
700 m²/s²
650 m²/s²
600 m²/s²
550 m²/s²
500 m²/s²
450 m²/s²
400 m²/s²
350 m²/s²
300 m²/s²
250 m²/s²
200 m²/s²
150 m²/s²
100 m²/s²
46 m/s
44 m/s
42 m/s
40 m/s
38 m/s
36 m/s
34 m/s
32 m/s
30 m/s
28 m/s
26 m/s
24 m/s
22 m/s
20 m/s
16 m/s
12 m/s
8 m/s
4 m/s
30 m/s
28 m/s
26 m/s
24 m/s
22 m/s
20 m/s
18 m/s
16 m/s
14 m/s
12 m/s
10 m/s
8 m/s
6 m/s
4 m/s
2 m/s
3.0
2.8
2.6
2.4
2.2
2.0
1.8
1.6
1.4
1.2
1.0
0.8
0.6
0.4
0.2
15
14
13
12
11
10
9
8
7
6
5
4
3
2
1
90%
80%
70%
60%
50%
40%
30%
20%
10%
42
40
38
36
34
32
30
28
26
24
22
20
18
16
14
12
90+ cm
80-90 cm
70-80 cm
60-70 cm
50-60 cm
40-50 cm
30-40 cm
20-30 cm
10-20 cm
1-10 cm
Sneeuwval
Natte sneeuw
Regen
>120 mm
115 mm
110 mm
105 mm
100 mm
95 mm
90 mm
85 mm
80 mm
75 mm
70 mm
65 mm
60 mm
55 mm
50 mm
45 mm
45 mm
40 mm
35 mm
30 mm
25 mm
20 mm
15 mm
10 mm
5 mm
0.1 mm
960 hPa
880 hPa
800 hPa
720 hPa
640 hPa
560 hPa
584 gpdm
568 gpdm
552 gpdm
536 gpdm
520 gpdm
504 gpdm
488 gpdm
Extreem zwaar Noodweer Kans op onweer
15% 15% 5% 50% 15%

Dag




Kaart






<
35°
30°
25°
20°
15°
10°
-5°
-10°
-15°
-20°
-25°
-30°
-35°